COSMOS 374 DEB *

Satellite information

Favourite Embed

Satellite Type and Status

DEBRISIN ORBIT

Key statistics

Satellite COSMOS 374 DEB * at a glance.

Uptime

20140

Days in orbit

Revolutions

≈ 13.1

Per day

Orbit

LEO

Low Earth Orbit

Inclination

63.3

Latest

Satellite identification and parameters

Extended collection of information and parameters for COSMOS 374 DEB *.

Object identification

Identified? True

Debris? True

Object name: COSMOS 374 DEB *

International designator: 1970-089Z

Object number (NORAD): 5028

Object ID (CCSDS): 5028

Country: COMMONWEALTH OF INDEPENDENT STATES (CIS)

Current information (Y/N): Y

RCS size: SMALL

Orbital parameters

Period: 109.616 minutes

Inclination: 63.3119 deg

SMA: 7587.116 km

Apoapsis: 1695.24 km

Periapsis: 722.722 km

RAAN: 348.2463 deg

Eccentricy: 0.06409012

Argument of periapsis: 290.2894 deg

Mean anomaly: 63.0367 deg

Mean motion: 13.13674226 rev/day

Mean motion (dot): 0.00001104 rev/day2

B* drag term: 0.0011382551 1/REarth

Two-line elements (TLE)

Creation date: Dec. 12, 2025, 10:14 a.m.

Reference frame: TEME

Reference center: EARTH

Epoch: Dec. 12, 2025, 6:22 a.m. UTC

TLE line 0: 0 COSMOS 374 DEB *

TLE line 1: 1 05028U 70089Z 25346.26545211 .00001104 00000-0 11383-2 0 9999

TLE line 2: 2 05028 63.3119 348.2463 0640901 290.2894 63.0367 13.13674226582098

Live tracking on map

Real-time ground track for satellite COSMOS 374 DEB *.

In-orbit conjunctions

A list of the most updated potential collisions computed for object COSMOS 374 DEB *.

Target Orbit TCA Probability of collision Miss distance Type
MINOTAUR R/B SSO 2025-02-09 15:35:47 0.000288166 598.0 (m) ROCKET BODY
COSMOS 1190 LEO 2024-10-29 13:08:11 0.003298196 74.0 (m) PAYLOAD

Associated space launch

The I2P satellites were the first soviet coorbital ASAT system.

COSMOS 374 DEB * was lifted into orbit during the mission ‘Tsiklon-2 | I2P 4’, on board a Tsiklon-2 space rocket.

The launch took place on Oct. 23, 1970, 4:42 a.m. from 90/20.

For more information about the launch, click the button.

Launch to space Tsiklon-2 | I2P 4
Tsiklon-2 | I2P 4

Agency: N/A

Status: Launch Successful

Launch date: Oct. 23, 1970, 4:42 a.m. UTC

Rocket: Tsiklon-2

Launch pad: 90/20

Location: Baikonur Cosmodrome, Republic of Kazakhstan

...

Latest news about this satellite

There are no fresh news available about this satellite. Check back as we update our databases every day.


Newsletter sign-up

Weekly statistics, charts and insights to help you stay on top of the space industry.